User: anonymous   Login
Location: Brede
(50.9167°N, 0.6000°E)
Time: 11:21:45
(UTC+00:00)
Language:

COBE Rocket - Orbit

View from above orbital plane
View from above orbital plane
View from above satellite
View from above satellite

Ground track
Ground track

The orbit data is extracted from the following two-line orbital elements,

1 20323U 89089B   20296.88983900 +.00000099 +00000-0 +34789-4 0  9991
2 20323 097.1090 062.4596 0071545 188.8891 171.1044 14.48363772611310
Epoch (UTC): 22 October 2020 21:21:22
Eccentricity: 0.0071545
inclination: 97.1090°
perigee height: 680 km
apogee height: 782 km
right ascension of ascending node: 62.4596°
argument of perigee: 188.8891°
revolutions per day: 14.48363772
mean anomaly at epoch: 171.1044°
orbit number at epoch: 61131

The dashed part of the orbit path shows where the satellite is in the earth's shadow,  

DLR